Location: Stara Lesna
(49.1528°N, 20.2911°E)
Time: 18:38:18
(UTC+02:00)

Cosmos 676 Rocket - Pass Details

Date: 13 July 2020
Orbit: 753 x 785 km, 74.0° (Epoch: 10 August)

Event Time Altitude Azimuth Distance (km) Brightness Sun altitude
Exits shadow 03:52:34 - 222° (SW) 2,352 5.8 -7.7°
Reaches altitude 10° 03:52:41 10° 223° (SW) 2,306 5.8 -7.7°
Maximum altitude 03:57:47 51° 299° (WNW) 970 4.5 -7.1°
Drops below altitude 10° 04:02:58 10° 16° (NNE) 2,341 7.6 -6.5°
Sets 04:05:27 0° 21° (NNE) 3,277 8.6 -6.2°
